Radiation Dose at Monitoring Post of Fukushima Daini Nuclear Power Station
Date,Time,MP-1(microSv/h),MP-2(microSv/h),MP-3(microSv/h),MP-4(microSv/h),MP-5(microSv/h),MP-6(microSv/h),MP-7(microSv/h),Wind Direction,Wind Velocity(m/s),Rain
2018/04/30,00:00,0.319,0.201,0.328,0.312,0.302,0.163,0.098,south-southwest,9.2,No
2018/04/30,00:10,0.317,0.202,0.328,0.314,0.303,0.162,0.097,south-southwest,9.6,No
2018/04/30,00:20,0.319,0.200,0.327,0.312,0.302,0.162,0.099,south-southwest,9.8,No
2018/04/30,00:30,0.317,0.201,0.328,0.314,0.302,0.163,0.099,south-southwest,9.3,No
2018/04/30,00:40,0.318,0.201,0.327,0.312,0.304,0.162,0.098,south-southwest,8.9,No
2018/04/30,00:50,0.316,0.200,0.327,0.313,0.301,0.163,0.098,south-southwest,9.8,No
2018/04/30,01:00,0.319,0.201,0.328,0.312,0.303,0.162,0.099,south,10.0,No
2018/04/30,01:10,0.316,0.200,0.327,0.313,0.301,0.162,0.098,south-southwest,8.9,No
2018/04/30,01:20,0.319,0.201,0.328,0.312,0.304,0.162,0.098,south-southwest,7.8,No
2018/04/30,01:30,0.317,0.200,0.327,0.313,0.302,0.162,0.098,south-southwest,8.8,No
2018/04/30,01:40,0.319,0.201,0.330,0.312,0.302,0.162,0.098,south-southwest,9.0,No
2018/04/30,01:50,0.316,0.201,0.326,0.311,0.301,0.162,0.098,south-southwest,7.9,No
2018/04/30,02:00,0.319,0.200,0.329,0.314,0.302,0.162,0.098,south-southwest,8.2,No
2018/04/30,02:10,0.316,0.201,0.327,0.312,0.302,0.162,0.098,south,7.8,No
2018/04/30,02:20,0.319,0.201,0.329,0.314,0.303,0.163,0.098,south-southwest,8.3,No
2018/04/30,02:30,0.317,0.200,0.326,0.311,0.302,0.162,0.098,south-southwest,7.8,No
2018/04/30,02:40,0.319,0.199,0.327,0.315,0.303,0.162,0.098,south,7.7,No
2018/04/30,02:50,0.318,0.200,0.327,0.312,0.302,0.162,0.098,south-southwest,8.1,No
2018/04/30,03:00,0.318,0.200,0.327,0.313,0.300,0.162,0.098,south-southwest,8.2,No
2018/04/30,03:10,0.319,0.199,0.327,0.312,0.301,0.162,0.099,south-southwest,8.1,No
2018/04/30,03:20,0.316,0.200,0.327,0.312,0.301,0.162,0.099,south-southwest,7.2,No
2018/04/30,03:30,0.318,0.201,0.328,0.313,0.303,0.162,0.098,south-southwest,7.6,No
2018/04/30,03:40,0.317,0.200,0.327,0.313,0.300,0.162,0.098,south,9.2,No
2018/04/30,03:50,0.319,0.201,0.328,0.311,0.303,0.162,0.099,south,9.3,No
2018/04/30,04:00,0.317,0.199,0.327,0.312,0.302,0.162,0.099,south,8.6,No
2018/04/30,04:10,0.317,0.201,0.328,0.314,0.302,0.162,0.098,south-southwest,7.7,No
2018/04/30,04:20,0.318,0.199,0.326,0.312,0.302,0.163,0.099,south-southwest,7.6,No
2018/04/30,04:30,0.316,0.199,0.329,0.314,0.302,0.163,0.098,south-southwest,7.6,No
2018/04/30,04:40,0.318,0.200,0.326,0.311,0.301,0.162,0.098,south-southwest,8.1,No
2018/04/30,04:50,0.316,0.201,0.328,0.313,0.300,0.163,0.099,south-southwest,8.5,No
2018/04/30,05:00,0.319,0.200,0.326,0.312,0.302,0.162,0.098,south-southwest,8.8,No
2018/04/30,05:10,0.317,0.200,0.328,0.314,0.300,0.162,0.098,south-southwest,9.3,No
2018/04/30,05:20,0.319,0.199,0.328,0.312,0.303,0.162,0.098,south-southwest,8.5,No
2018/04/30,05:30,0.316,0.200,0.325,0.311,0.301,0.163,0.098,south-southwest,8.8,No
2018/04/30,05:40,0.318,0.200,0.329,0.314,0.304,0.162,0.098,south,9.2,No
2018/04/30,05:50,0.317,0.200,0.326,0.312,0.299,0.162,0.098,south,10.4,No
2018/04/30,06:00,0.317,0.201,0.328,0.313,0.304,0.162,0.098,south,10.3,No
2018/04/30,06:10,0.318,0.199,0.326,0.311,0.300,0.162,0.098,south,11.4,No
2018/04/30,06:20,0.315,0.201,0.328,0.313,0.303,0.163,0.098,south-southwest,11.2,No
2018/04/30,06:30,0.320,0.199,0.325,0.311,0.300,0.162,0.099,south,10.7,No
2018/04/30,06:40,0.318,0.202,0.328,0.314,0.302,0.162,0.098,south,11.1,No
2018/04/30,06:50,0.319,0.199,0.326,0.309,0.299,0.162,0.097,south,10.3,No
2018/04/30,07:00,0.315,0.199,0.328,0.313,0.302,0.162,0.098,south,10.7,No
2018/04/30,07:10,0.318,0.200,0.323,0.311,0.300,0.162,0.098,south,11.2,No
2018/04/30,07:20,0.316,0.201,0.325,0.309,0.303,0.162,0.098,south,11.2,No
2018/04/30,07:30,0.316,0.200,0.326,0.313,0.299,0.162,0.099,south,11.7,No
2018/04/30,07:40,0.318,0.197,0.324,0.311,0.302,0.162,0.098,south,10.9,No
2018/04/30,07:50,0.315,0.199,0.328,0.309,0.300,0.162,0.097,south,10.1,No
2018/04/30,08:00,0.317,0.200,0.324,0.312,0.301,0.162,0.098,south,10.6,No
2018/04/30,08:10,0.316,0.200,0.325,0.312,0.302,0.162,0.097,south,10.6,No
2018/04/30,08:20,0.315,0.198,0.327,0.309,0.299,0.161,0.097,south-southwest,10.9,No
2018/04/30,08:30,0.314,0.201,0.325,0.309,0.301,0.161,0.096,south,10.7,No
2018/04/30,08:40,0.316,0.200,0.329,0.313,0.301,0.162,0.097,south,10.3,No
2018/04/30,08:50,0.317,0.198,0.326,0.313,0.299,0.162,0.097,south,11.2,No
2018/04/30,09:00,0.316,0.199,0.326,0.311,0.298,0.160,0.098,south,11.8,No
2018/04/30,09:10,0.315,0.199,0.329,0.310,0.303,0.161,0.097,south,12.8,No
2018/04/30,09:20,0.312,0.201,0.324,0.307,0.301,0.161,0.097,south,14.0,No
2018/04/30,09:30,0.314,0.200,0.328,0.308,0.299,0.161,0.098,south,15.0,No
2018/04/30,09:40,0.319,0.199,0.327,0.314,0.299,0.161,0.097,south,14.8,No
2018/04/30,09:50,0.318,0.198,0.326,0.311,0.303,0.161,0.098,south,14.5,No
2018/04/30,10:00,0.316,0.200,0.330,0.310,0.300,0.161,0.098,south,16.6,No
2018/04/30,10:10,0.315,0.200,0.327,0.310,0.299,0.162,0.097,south,17.5,No
2018/04/30,10:20,0.320,0.200,0.325,0.314,0.303,0.162,0.099,south,17.8,No
2018/04/30,10:30,0.318,0.201,0.328,0.314,0.302,0.161,0.098,south,16.8,No
2018/04/30,10:40,0.316,0.200,0.327,0.311,0.299,0.162,0.097,south,15.6,No
2018/04/30,10:50,0.315,0.201,0.323,0.310,0.302,0.162,0.098,south-southeast,12.3,No
2018/04/30,11:00,0.316,0.198,0.323,0.313,0.303,0.161,0.099,south,14.8,No
2018/04/30,11:10,0.320,0.200,0.327,0.314,0.302,0.162,0.098,south,12.6,No
2018/04/30,11:20,0.318,0.201,0.327,0.311,0.298,0.162,0.097,south,14.8,No
2018/04/30,11:30,0.316,0.199,0.327,0.310,0.302,0.162,0.099,south-southeast,12.3,No
2018/04/30,11:40,0.313,0.199,0.324,0.313,0.302,0.161,0.098,south,15.1,No
2018/04/30,11:50,0.317,0.201,0.324,0.313,0.301,0.162,0.098,south,15.5,No
2018/04/30,12:00,0.321,0.201,0.328,0.313,0.299,0.162,0.099,south,16.2,No
2018/04/30,12:10,0.318,0.199,0.328,0.310,0.304,0.162,0.098,south,13.9,No
2018/04/30,12:20,0.316,0.199,0.326,0.310,0.303,0.162,0.098,south,16.2,No
2018/04/30,12:30,0.314,0.200,0.326,0.315,0.300,0.163,0.099,south,16.1,No
2018/04/30,12:40,0.315,0.201,0.325,0.314,0.300,0.162,0.098,south,15.9,No
2018/04/30,12:50,0.321,0.199,0.327,0.310,0.304,0.162,0.098,south,16.2,No
2018/04/30,13:00,0.317,0.201,0.330,0.316,0.302,0.162,0.099,south,15.1,No
2018/04/30,13:10,0.318,0.200,0.327,0.313,0.301,0.162,0.098,south,14.0,No
2018/04/30,13:20,0.320,0.201,0.325,0.312,0.301,0.162,0.097,south,13.1,No
2018/04/30,13:30,0.318,0.199,0.327,0.313,0.303,0.162,0.099,south,13.9,No
2018/04/30,13:40,0.316,0.202,0.330,0.315,0.301,0.162,0.098,south,14.0,No
2018/04/30,13:50,0.320,0.200,0.328,0.314,0.301,0.162,0.098,south,14.2,No
2018/04/30,14:00,0.319,0.200,0.325,0.310,0.302,0.163,0.099,south,13.7,No
2018/04/30,14:10,0.318,0.202,0.328,0.314,0.302,0.163,0.098,south,13.4,No
2018/04/30,14:20,0.318,0.200,0.331,0.314,0.298,0.163,0.097,south,13.4,No
2018/04/30,14:30,0.319,0.200,0.327,0.311,0.302,0.161,0.099,south,13.1,No
2018/04/30,14:40,0.317,0.202,0.331,0.316,0.304,0.163,0.098,south,12.0,No
2018/04/30,14:50,0.317,0.200,0.328,0.313,0.300,0.163,0.098,south,11.1,No
2018/04/30,15:00,0.320,0.201,0.326,0.311,0.300,0.161,0.098,south,11.7,No
2018/04/30,15:10,0.319,0.201,0.329,0.316,0.304,0.163,0.097,south,10.9,No
2018/04/30,15:20,0.316,0.200,0.328,0.314,0.302,0.162,0.098,south,11.2,No
2018/04/30,15:30,0.319,0.202,0.327,0.313,0.303,0.162,0.099,south,9.8,No
2018/04/30,15:40,0.316,0.201,0.331,0.315,0.304,0.164,0.098,south-southwest,10.4,No
2018/04/30,15:50,0.318,0.200,0.327,0.312,0.299,0.162,0.098,south,10.1,No
2018/04/30,16:00,0.319,0.202,0.329,0.316,0.304,0.162,0.098,south-southwest,9.5,No
2018/04/30,16:10,0.316,0.201,0.330,0.314,0.303,0.164,0.098,south-southwest,10.0,No
2018/04/30,16:20,0.318,0.202,0.327,0.312,0.301,0.162,0.098,south,9.5,No
2018/04/30,16:30,0.319,0.201,0.330,0.315,0.304,0.161,0.098,south-southwest,9.8,No
2018/04/30,16:40,0.316,0.201,0.329,0.313,0.301,0.164,0.098,south-southwest,9.0,No
2018/04/30,16:50,0.320,0.201,0.327,0.314,0.304,0.162,0.098,south-southwest,9.8,No
2018/04/30,17:00,0.317,0.201,0.329,0.313,0.303,0.163,0.099,south-southwest,8.6,No
2018/04/30,17:10,0.318,0.202,0.327,0.313,0.301,0.162,0.097,south,8.1,No
2018/04/30,17:20,0.319,0.200,0.329,0.314,0.303,0.162,0.099,south-southwest,5.9,No
2018/04/30,17:30,0.317,0.202,0.326,0.312,0.302,0.163,0.099,south-southwest,6.4,No
2018/04/30,17:40,0.321,0.202,0.330,0.315,0.304,0.162,0.098,south-southwest,8.4,No
2018/04/30,17:50,0.317,0.201,0.327,0.313,0.302,0.163,0.097,south-southwest,8.7,No
2018/04/30,18:00,0.320,0.201,0.329,0.317,0.303,0.162,0.098,south-southwest,10.3,No
2018/04/30,18:10,0.318,0.201,0.329,0.313,0.302,0.162,0.099,south,7.8,No
2018/04/30,18:20,0.319,0.201,0.329,0.315,0.303,0.163,0.097,south,8.5,No
2018/04/30,18:30,0.319,0.200,0.329,0.314,0.305,0.162,0.099,south,10.0,No
2018/04/30,18:40,0.318,0.201,0.328,0.314,0.302,0.163,0.098,south-southwest,9.8,No
2018/04/30,18:50,0.321,0.200,0.330,0.315,0.304,0.162,0.099,south-southwest,12.2,No
2018/04/30,19:00,0.317,0.201,0.327,0.314,0.301,0.163,0.099,south-southwest,11.7,No
2018/04/30,19:10,0.320,0.201,0.331,0.315,0.302,0.162,0.099,south-southwest,10.9,No
2018/04/30,19:20,0.318,0.202,0.328,0.315,0.303,0.162,0.099,south-southwest,10.6,No
2018/04/30,19:30,0.318,0.201,0.331,0.313,0.303,0.163,0.098,south-southwest,9.5,No
2018/04/30,19:40,0.318,0.201,0.328,0.314,0.305,0.162,0.099,south,10.3,No
2018/04/30,19:50,0.318,0.201,0.329,0.314,0.302,0.162,0.098,south-southwest,8.8,No
2018/04/30,20:00,0.318,0.202,0.328,0.313,0.303,0.162,0.099,south-southwest,6.4,No
2018/04/30,20:10,0.318,0.200,0.329,0.314,0.301,0.162,0.098,south-southwest,7.3,No
2018/04/30,20:20,0.320,0.201,0.328,0.314,0.304,0.161,0.098,south,7.0,No
2018/04/30,20:30,0.318,0.201,0.329,0.315,0.301,0.163,0.099,south-southwest,8.5,No
2018/04/30,20:40,0.318,0.201,0.328,0.313,0.304,0.163,0.098,south-southwest,9.5,No
2018/04/30,20:50,0.317,0.201,0.328,0.314,0.300,0.162,0.099,south-southwest,7.7,No
2018/04/30,21:00,0.321,0.202,0.329,0.314,0.305,0.163,0.099,south-southwest,7.5,No
2018/04/30,21:10,0.316,0.201,0.328,0.314,0.303,0.161,0.098,south,6.8,No
2018/04/30,21:20,0.321,0.202,0.329,0.313,0.304,0.163,0.098,south,5.3,No
2018/04/30,21:30,0.317,0.201,0.330,0.315,0.303,0.162,0.097,south-southwest,6.3,No
2018/04/30,21:40,0.320,0.202,0.328,0.315,0.303,0.163,0.099,south-southwest,6.2,No
2018/04/30,21:50,0.317,0.201,0.329,0.314,0.303,0.162,0.099,south-southwest,6.3,No
2018/04/30,22:00,0.321,0.201,0.329,0.315,0.303,0.163,0.099,south-southwest,6.1,No
2018/04/30,22:10,0.320,0.200,0.328,0.313,0.304,0.162,0.099,south-southwest,6.7,No
2018/04/30,22:20,0.320,0.200,0.329,0.316,0.302,0.163,0.097,south-southwest,6.4,No
2018/04/30,22:30,0.318,0.202,0.328,0.313,0.304,0.163,0.099,south-southwest,5.7,No
2018/04/30,22:40,0.319,0.201,0.330,0.316,0.301,0.163,0.099,south-southwest,4.6,No
2018/04/30,22:50,0.319,0.203,0.329,0.313,0.304,0.162,0.099,south-southwest,4.1,No
2018/04/30,23:00,0.320,0.201,0.330,0.315,0.302,0.164,0.100,south-southwest,4.4,No
2018/04/30,23:10,0.319,0.203,0.327,0.314,0.304,0.162,0.098,southwest,3.3,No
2018/04/30,23:20,0.319,0.201,0.330,0.315,0.302,0.163,0.100,west-southwest,3.0,No
2018/04/30,23:30,0.320,0.202,0.328,0.313,0.306,0.162,0.099,southwest,2.0,No
2018/04/30,23:40,0.319,0.201,0.331,0.315,0.302,0.163,0.099,southwest,2.1,No
2018/04/30,23:50,0.320,0.201,0.330,0.315,0.305,0.163,0.099,south-southwest,2.9,No
